Time,TemperatureF,DewpointF,PressureIn,WindDirection,WindDirectionDegrees,WindSpeedMPH,WindSpeedGustMPH,Humidity,HourlyPrecipIn,Conditions,Clouds,dailyrainin,SoftwareType,DateUTC
2013-04-23 00:02:00,51.5,48.7,29.96,West,270,2.0,2.0,90,0.00,,,0.05,Wunderground v.1.15,2013-04-23 05:02:00,
2013-04-23 00:07:00,51.5,48.7,29.96,West,267,3.0,5.0,90,0.00,,,0.05,Wunderground v.1.15,2013-04-23 05:07:00,
2013-04-23 00:13:00,51.5,48.7,29.96,West,259,2.0,6.0,90,0.00,,,0.00,Wunderground v.1.15,2013-04-23 05:13:00,
2013-04-23 00:18:00,51.1,48.0,29.96,West,278,4.0,6.0,89,0.00,,,0.00,Wunderground v.1.15,2013-04-23 05:18:00,
2013-04-23 00:24:00,50.6,47.5,29.96,West,279,5.0,5.0,89,0.00,,,0.00,Wunderground v.1.15,2013-04-23 05:24:00,
2013-04-23 00:29:00,50.2,47.1,29.95,WNW,284,1.0,5.0,89,0.00,,,0.00,Wunderground v.1.15,2013-04-23 05:29:00,
2013-04-23 00:34:00,49.9,46.8,29.93,West,281,3.0,3.0,89,0.00,,,0.00,Wunderground v.1.15,2013-04-23 05:34:00,
2013-04-23 00:40:00,49.7,46.6,29.92,West,281,0.0,2.0,89,0.00,,,0.00,Wunderground v.1.15,2013-04-23 05:40:00,
2013-04-23 00:45:00,49.4,46.3,29.93,WNW,292,9.0,9.0,89,0.00,,,0.00,Wunderground v.1.15,2013-04-23 05:45:00,
2013-04-23 00:50:00,48.9,45.8,29.93,NW,306,10.0,10.0,89,0.00,,,0.00,Wunderground v.1.15,2013-04-23 05:50:00,
2013-04-23 00:56:00,47.9,44.8,29.94,WNW,296,12.0,12.0,89,0.00,,,0.00,Wunderground v.1.15,2013-04-23 05:56:00,
2013-04-23 01:01:00,47.2,44.1,29.94,WNW,292,9.0,11.0,89,0.00,,,0.00,Wunderground v.1.15,2013-04-23 06:01:00,
2013-04-23 01:07:00,46.1,43.0,29.96,WNW,296,12.0,12.0,89,0.00,,,0.00,Wunderground v.1.15,2013-04-23 06:07:00,
2013-04-23 01:12:00,45.4,42.6,29.97,WNW,301,17.0,17.0,90,0.00,,,0.00,Wunderground v.1.15,2013-04-23 06:12:00,
2013-04-23 01:17:00,44.8,42.0,29.97,WNW,285,17.0,17.0,90,0.00,,,0.00,Wunderground v.1.15,2013-04-23 06:17:00,
2013-04-23 01:22:00,43.8,40.8,29.97,WNW,294,15.0,16.0,89,0.00,,,0.00,Wunderground v.1.15,2013-04-23 06:22:00,
2013-04-23 01:28:00,42.9,40.2,29.97,WNW,292,15.0,18.0,90,0.00,,,0.00,Wunderground v.1.15,2013-04-23 06:28:00,
2013-04-23 01:33:00,42.4,39.7,29.97,NW,308,17.0,19.0,90,0.00,,,0.00,Wunderground v.1.15,2013-04-23 06:33:00,
2013-04-23 01:39:00,42.0,39.3,29.97,NW,319,19.0,19.0,90,0.00,,,0.00,Wunderground v.1.15,2013-04-23 06:39:00,
2013-04-23 01:44:00,41.5,38.8,29.97,NW,315,14.0,16.0,90,0.00,,,0.00,Wunderground v.1.15,2013-04-23 06:44:00,
2013-04-23 01:50:00,41.1,38.4,29.98,WNW,290,18.0,18.0,90,0.00,,,0.00,Wunderground v.1.15,2013-04-23 06:50:00,
2013-04-23 01:55:00,40.6,37.9,29.99,WNW,302,15.0,21.0,90,0.00,,,0.00,Wunderground v.1.15,2013-04-23 06:55:00,
2013-04-23 02:00:00,40.4,37.7,29.99,WNW,302,12.0,17.0,90,0.00,,,0.00,Wunderground v.1.15,2013-04-23 07:00:00,
2013-04-23 02:05:00,40.2,37.5,30.00,WNW,288,11.0,19.0,90,0.00,,,0.00,Wunderground v.1.15,2013-04-23 07:05:00,
2013-04-23 02:10:00,40.0,37.3,30.00,WNW,298,16.0,16.0,90,0.00,,,0.00,Wunderground v.1.15,2013-04-23 07:10:00,
2013-04-23 02:15:00,40.0,37.3,29.99,WNW,303,16.0,18.0,90,0.00,,,0.00,Wunderground v.1.15,2013-04-23 07:15:00,
2013-04-23 02:20:00,40.0,37.3,29.99,NW,305,11.0,14.0,90,0.00,,,0.00,Wunderground v.1.15,2013-04-23 07:20:00,
2013-04-23 02:25:00,39.8,37.1,29.99,WNW,303,11.0,19.0,90,0.00,,,0.00,Wunderground v.1.15,2013-04-23 07:25:00,
2013-04-23 02:30:00,39.7,37.0,30.00,NW,315,14.0,16.0,90,0.00,,,0.00,Wunderground v.1.15,2013-04-23 07:30:00,
2013-04-23 02:35:00,39.6,36.9,29.99,NW,324,13.0,18.0,90,0.00,,,0.00,Wunderground v.1.15,2013-04-23 07:35:00,
2013-04-23 02:40:00,39.4,36.7,30.00,NW,307,17.0,17.0,90,0.00,,,0.00,Wunderground v.1.15,2013-04-23 07:40:00,
2013-04-23 02:45:00,39.3,36.3,30.00,WNW,302,17.0,18.0,89,0.00,,,0.00,Wunderground v.1.15,2013-04-23 07:45:00,
2013-04-23 02:50:00,39.2,36.2,29.99,NW,312,16.0,16.0,89,0.00,,,0.00,Wunderground v.1.15,2013-04-23 07:50:00,
2013-04-23 02:55:00,39.2,36.5,29.98,NW,312,12.0,17.0,90,0.00,,,0.00,Wunderground v.1.15,2013-04-23 07:55:00,
2013-04-23 03:00:00,38.9,36.2,29.98,NW,317,17.0,19.0,90,0.00,,,0.00,Wunderground v.1.15,2013-04-23 08:00:00,
2013-04-23 03:06:00,38.8,36.1,29.98,NW,326,16.0,19.0,90,0.00,,,0.00,Wunderground v.1.15,2013-04-23 08:06:00,
2013-04-23 03:11:00,38.6,35.9,29.98,NNW,331,16.0,19.0,90,0.00,,,0.00,Wunderground v.1.15,2013-04-23 08:11:00,
2013-04-23 03:16:00,38.6,35.9,29.98,NW,319,15.0,19.0,90,0.00,,,0.00,Wunderground v.1.15,2013-04-23 08:16:00,
2013-04-23 03:21:00,38.5,35.8,29.98,NNW,335,15.0,16.0,90,0.00,,,0.00,Wunderground v.1.15,2013-04-23 08:21:00,
2013-04-23 03:26:00,38.3,35.6,29.99,NW,311,16.0,20.0,90,0.00,,,0.00,Wunderground v.1.15,2013-04-23 08:26:00,
2013-04-23 03:31:00,38.2,35.5,30.00,NNW,327,16.0,20.0,90,0.00,,,0.00,Wunderground v.1.15,2013-04-23 08:31:00,
2013-04-23 03:36:00,38.0,35.3,29.99,NNW,334,17.0,22.0,90,0.00,,,0.00,Wunderground v.1.15,2013-04-23 08:36:00,
2013-04-23 03:42:00,37.9,34.9,29.99,NW,325,13.0,18.0,89,0.00,,,0.00,Wunderground v.1.15,2013-04-23 08:42:00,
2013-04-23 03:47:00,37.8,34.8,29.99,NW,315,13.0,19.0,89,0.00,,,0.00,Wunderground v.1.15,2013-04-23 08:47:00,
2013-04-23 03:52:00,37.7,34.8,29.99,NW,323,11.0,20.0,89,0.00,,,0.00,Wunderground v.1.15,2013-04-23 08:52:00,
2013-04-23 03:57:00,37.7,34.8,29.98,NNW,335,18.0,20.0,89,0.00,,,0.00,Wunderground v.1.15,2013-04-23 08:57:00,
2013-04-23 04:02:00,37.6,34.4,29.97,NNW,341,17.0,18.0,88,0.00,,,0.00,Wunderground v.1.15,2013-04-23 09:02:00,
2013-04-23 04:07:00,37.5,34.3,29.98,NNW,338,12.0,20.0,88,0.00,,,0.00,Wunderground v.1.15,2013-04-23 09:07:00,
2013-04-23 04:12:00,37.5,34.0,29.98,NW,315,14.0,22.0,87,0.00,,,0.00,Wunderground v.1.15,2013-04-23 09:12:00,
2013-04-23 04:17:00,37.4,33.9,29.99,NW,317,14.0,22.0,87,0.00,,,0.00,Wunderground v.1.15,2013-04-23 09:17:00,
2013-04-23 04:22:00,37.4,33.9,29.99,NNW,329,18.0,18.0,87,0.00,,,0.00,Wunderground v.1.15,2013-04-23 09:22:00,
2013-04-23 04:27:00,37.3,33.8,30.00,NNW,339,17.0,19.0,87,0.00,,,0.00,Wunderground v.1.15,2013-04-23 09:27:00,
2013-04-23 04:32:00,37.3,33.8,30.00,NNW,329,11.0,15.0,87,0.00,,,0.00,Wunderground v.1.15,2013-04-23 09:32:00,
2013-04-23 04:37:00,37.2,33.7,30.01,NW,317,17.0,20.0,87,0.00,,,0.00,Wunderground v.1.15,2013-04-23 09:37:00,
2013-04-23 04:42:00,37.2,33.7,30.02,NNW,340,13.0,17.0,87,0.00,,,0.00,Wunderground v.1.15,2013-04-23 09:42:00,
2013-04-23 04:47:00,37.2,33.7,30.02,NNW,335,11.0,18.0,87,0.00,,,0.00,Wunderground v.1.15,2013-04-23 09:47:00,
2013-04-23 04:52:00,37.2,33.7,30.01,NW,325,11.0,19.0,87,0.00,,,0.00,Wunderground v.1.15,2013-04-23 09:52:00,
2013-04-23 04:57:00,37.2,33.4,30.03,NNW,331,19.0,21.0,86,0.00,,,0.00,Wunderground v.1.15,2013-04-23 09:57:00,
2013-04-23 05:02:00,37.1,33.3,30.04,NW,325,12.0,17.0,86,0.00,,,0.00,Wunderground v.1.15,2013-04-23 10:02:00,
2013-04-23 05:08:00,37.1,33.0,30.03,North,360,13.0,21.0,85,0.00,,,0.00,Wunderground v.1.15,2013-04-23 10:08:00,
2013-04-23 05:13:00,37.1,33.0,30.03,North,349,14.0,20.0,85,0.00,,,0.00,Wunderground v.1.15,2013-04-23 10:13:00,
2013-04-23 05:18:00,37.1,33.3,30.02,NNW,340,12.0,20.0,86,0.00,,,0.00,Wunderground v.1.15,2013-04-23 10:18:00,
2013-04-23 05:23:00,37.1,33.3,30.02,NNW,336,12.0,17.0,86,0.00,,,0.00,Wunderground v.1.15,2013-04-23 10:23:00,
2013-04-23 05:28:00,37.1,33.3,30.02,NNW,343,8.0,18.0,86,0.00,,,0.00,Wunderground v.1.15,2013-04-23 10:28:00,
2013-04-23 05:33:00,37.1,33.3,30.02,North,355,11.0,16.0,86,0.00,,,0.00,Wunderground v.1.15,2013-04-23 10:33:00,
2013-04-23 05:38:00,37.0,33.2,30.01,North,355,14.0,17.0,86,0.00,,,0.00,Wunderground v.1.15,2013-04-23 10:38:00,
2013-04-23 05:43:00,36.9,33.1,30.01,NNW,344,17.0,20.0,86,0.00,,,0.00,Wunderground v.1.15,2013-04-23 10:43:00,
2013-04-23 05:48:00,36.9,33.1,30.01,NNW,346,17.0,22.0,86,0.00,,,0.00,Wunderground v.1.15,2013-04-23 10:48:00,
2013-04-23 05:53:00,36.9,32.8,30.01,NNW,332,13.0,20.0,85,0.00,,,0.00,Wunderground v.1.15,2013-04-23 10:53:00,
2013-04-23 05:58:00,36.8,32.7,30.00,NNW,332,16.0,26.0,85,0.00,,,0.00,Wunderground v.1.15,2013-04-23 10:58:00,
2013-04-23 06:03:00,36.8,32.7,30.00,North,350,13.0,22.0,85,0.00,,,0.00,Wunderground v.1.15,2013-04-23 11:03:00,
2013-04-23 06:08:00,36.7,32.6,30.00,NNW,327,13.0,22.0,85,0.00,,,0.00,Wunderground v.1.15,2013-04-23 11:08:00,
2013-04-23 06:13:00,36.7,32.6,30.00,NNW,341,19.0,25.0,85,0.00,,,0.00,Wunderground v.1.15,2013-04-23 11:13:00,
2013-04-23 06:18:00,36.6,32.5,30.01,NNW,335,15.0,25.0,85,0.00,,,0.00,Wunderground v.1.15,2013-04-23 11:18:00,
2013-04-23 06:23:00,36.6,32.5,30.02,NNW,336,13.0,21.0,85,0.00,,,0.00,Wunderground v.1.15,2013-04-23 11:23:00,
2013-04-23 06:28:00,36.6,32.5,30.02,NW,325,14.0,22.0,85,0.00,,,0.00,Wunderground v.1.15,2013-04-23 11:28:00,
2013-04-23 06:34:00,36.6,32.5,30.02,NNW,339,17.0,23.0,85,0.00,,,0.00,Wunderground v.1.15,2013-04-23 11:34:00,
2013-04-23 06:39:00,36.6,32.5,30.02,NW,325,21.0,23.0,85,0.00,,,0.00,Wunderground v.1.15,2013-04-23 11:39:00,
2013-04-23 06:44:00,36.7,32.6,30.02,NNW,331,16.0,21.0,85,0.00,,,0.00,Wunderground v.1.15,2013-04-23 11:44:00,
2013-04-23 06:49:00,36.6,32.5,30.02,NNW,347,17.0,21.0,85,0.00,,,0.00,Wunderground v.1.15,2013-04-23 11:49:00,
2013-04-23 06:54:00,36.7,32.6,30.03,NNW,334,16.0,21.0,85,0.00,,,0.00,Wunderground v.1.15,2013-04-23 11:54:00,
2013-04-23 06:59:00,36.6,32.2,30.03,NW,326,16.0,24.0,84,0.00,,,0.00,Wunderground v.1.15,2013-04-23 11:59:00,
2013-04-23 07:04:00,36.7,32.6,30.03,NW,325,16.0,19.0,85,0.00,,,0.00,Wunderground v.1.15,2013-04-23 12:04:00,
2013-04-23 07:09:00,36.6,32.5,30.03,North,350,15.0,19.0,85,0.00,,,0.00,Wunderground v.1.15,2013-04-23 12:09:00,
2013-04-23 07:14:00,36.6,32.2,30.03,NNW,329,14.0,23.0,84,0.00,,,0.00,Wunderground v.1.15,2013-04-23 12:14:00,
2013-04-23 07:19:00,36.6,32.2,30.02,NW,324,16.0,23.0,84,0.00,,,0.00,Wunderground v.1.15,2013-04-23 12:19:00,
2013-04-23 07:24:00,36.6,32.5,30.02,NNW,344,15.0,22.0,85,0.00,,,0.00,Wunderground v.1.15,2013-04-23 12:24:00,
2013-04-23 07:29:00,36.6,32.5,30.01,NNW,333,20.0,22.0,85,0.00,,,0.00,Wunderground v.1.15,2013-04-23 12:29:00,
2013-04-23 07:34:00,36.6,32.2,30.01,NNW,329,18.0,19.0,84,0.00,,,0.00,Wunderground v.1.15,2013-04-23 12:34:00,
2013-04-23 07:39:00,36.5,32.4,30.01,North,351,13.0,23.0,85,0.00,,,0.00,Wunderground v.1.15,2013-04-23 12:39:00,
2013-04-23 07:44:00,36.6,32.5,30.01,NW,321,13.0,18.0,85,0.00,,,0.00,Wunderground v.1.15,2013-04-23 12:44:00,
2013-04-23 07:49:00,36.7,32.6,30.01,NNW,338,11.0,18.0,85,0.00,,,0.00,Wunderground v.1.15,2013-04-23 12:49:00,
2013-04-23 07:54:00,36.7,32.6,30.01,North,350,12.0,20.0,85,0.00,,,0.00,Wunderground v.1.15,2013-04-23 12:54:00,
2013-04-23 07:59:00,36.7,32.6,30.01,NNW,336,19.0,22.0,85,0.00,,,0.00,Wunderground v.1.15,2013-04-23 12:59:00,
2013-04-23 08:05:00,36.6,32.2,30.01,NNW,348,18.0,23.0,84,0.00,,,0.00,Wunderground v.1.15,2013-04-23 13:05:00,
2013-04-23 08:10:00,36.6,32.2,30.01,NNW,343,12.0,17.0,84,0.00,,,0.00,Wunderground v.1.15,2013-04-23 13:10:00,
2013-04-23 08:15:00,36.7,32.3,30.01,NNE,12,20.0,22.0,84,0.00,,,0.00,Wunderground v.1.15,2013-04-23 13:15:00,
2013-04-23 08:20:00,36.7,32.3,30.01,North,349,18.0,18.0,84,0.00,,,0.00,Wunderground v.1.15,2013-04-23 13:20:00,
2013-04-23 08:25:00,36.8,32.1,30.02,North,350,14.0,25.0,83,0.00,,,0.00,Wunderground v.1.15,2013-04-23 13:25:00,
2013-04-23 08:30:00,36.8,32.1,30.01,NNW,344,21.0,21.0,83,0.00,,,0.00,Wunderground v.1.15,2013-04-23 13:30:00,
2013-04-23 08:35:00,37.0,32.3,30.02,North,349,21.0,25.0,83,0.00,,,0.00,Wunderground v.1.15,2013-04-23 13:35:00,
2013-04-23 08:40:00,37.0,32.3,30.04,NNW,336,13.0,19.0,83,0.00,,,0.00,Wunderground v.1.15,2013-04-23 13:40:00,
2013-04-23 08:45:00,37.0,32.3,30.04,NNW,343,14.0,24.0,83,0.00,,,0.00,Wunderground v.1.15,2013-04-23 13:45:00,
2013-04-23 08:51:00,37.0,32.3,30.04,North,355,13.0,17.0,83,0.00,,,0.00,Wunderground v.1.15,2013-04-23 13:51:00,
2013-04-23 08:56:00,36.9,31.9,30.04,North,355,23.0,25.0,82,0.00,,,0.00,Wunderground v.1.15,2013-04-23 13:56:00,
2013-04-23 09:01:00,37.0,32.3,30.04,NNW,346,14.0,19.0,83,0.00,,,0.00,Wunderground v.1.15,2013-04-23 14:01:00,
2013-04-23 09:06:00,37.1,32.4,30.05,North,355,19.0,21.0,83,0.00,,,0.00,Wunderground v.1.15,2013-04-23 14:06:00,
2013-04-23 09:11:00,37.1,32.1,30.06,NNW,333,16.0,21.0,82,0.00,,,0.00,Wunderground v.1.15,2013-04-23 14:11:00,
2013-04-23 09:16:00,37.1,32.4,30.05,NNW,338,15.0,21.0,83,0.00,,,0.00,Wunderground v.1.15,2013-04-23 14:16:00,
2013-04-23 09:21:00,37.2,32.5,30.05,NNW,327,16.0,19.0,83,0.00,,,0.00,Wunderground v.1.15,2013-04-23 14:21:00,
2013-04-23 09:26:00,37.2,32.5,30.05,NNW,346,19.0,23.0,83,0.00,,,0.00,Wunderground v.1.15,2013-04-23 14:26:00,
2013-04-23 09:31:00,37.3,32.6,30.05,NNW,348,19.0,20.0,83,0.00,,,0.00,Wunderground v.1.15,2013-04-23 14:31:00,
2013-04-23 09:36:00,37.3,32.6,30.04,NNW,339,12.0,23.0,83,0.00,,,0.00,Wunderground v.1.15,2013-04-23 14:36:00,
2013-04-23 09:41:00,37.3,32.6,30.04,NNW,343,15.0,21.0,83,0.00,,,0.00,Wunderground v.1.15,2013-04-23 14:41:00,
2013-04-23 09:46:00,37.2,32.5,30.04,NNW,340,18.0,21.0,83,0.00,,,0.00,Wunderground v.1.15,2013-04-23 14:46:00,
2013-04-23 09:51:00,37.2,32.2,30.03,NNW,346,17.0,25.0,82,0.00,,,0.00,Wunderground v.1.15,2013-04-23 14:51:00,
2013-04-23 09:56:00,37.2,32.2,30.03,North,350,20.0,25.0,82,0.00,,,0.00,Wunderground v.1.15,2013-04-23 14:56:00,
2013-04-23 10:01:00,37.1,32.1,30.04,NNW,341,13.0,18.0,82,0.00,,,0.00,Wunderground v.1.15,2013-04-23 15:01:00,
2013-04-23 10:06:00,37.3,32.3,30.03,North,9,15.0,22.0,82,0.00,,,0.00,Wunderground v.1.15,2013-04-23 15:06:00,
2013-04-23 10:11:00,37.2,31.9,30.03,North,355,18.0,21.0,81,0.00,,,0.00,Wunderground v.1.15,2013-04-23 15:11:00,
2013-04-23 10:16:00,37.2,32.2,30.04,NNW,343,15.0,21.0,82,0.00,,,0.00,Wunderground v.1.15,2013-04-23 15:16:00,
2013-04-23 10:21:00,37.2,32.2,30.03,NNW,348,16.0,19.0,82,0.00,,,0.00,Wunderground v.1.15,2013-04-23 15:21:00,
2013-04-23 10:26:00,37.2,32.2,30.03,North,355,15.0,22.0,82,0.00,,,0.00,Wunderground v.1.15,2013-04-23 15:26:00,
2013-04-23 10:31:00,37.3,32.3,30.04,North,9,16.0,20.0,82,0.00,,,0.00,Wunderground v.1.15,2013-04-23 15:31:00,
2013-04-23 10:36:00,37.5,32.5,30.03,NNW,343,22.0,23.0,82,0.00,,,0.00,Wunderground v.1.15,2013-04-23 15:36:00,
2013-04-23 10:41:00,37.5,32.5,30.03,NNW,346,21.0,23.0,82,0.00,,,0.00,Wunderground v.1.15,2013-04-23 15:41:00,
2013-04-23 10:46:00,37.8,32.8,30.03,NNW,346,20.0,23.0,82,0.00,,,0.00,Wunderground v.1.15,2013-04-23 15:46:00,
2013-04-23 10:51:00,37.8,32.5,30.03,NNW,348,17.0,24.0,81,0.00,,,0.00,Wunderground v.1.15,2013-04-23 15:51:00,
2013-04-23 10:56:00,38.0,32.7,30.04,North,350,19.0,24.0,81,0.00,,,0.00,Wunderground v.1.15,2013-04-23 15:56:00,
2013-04-23 11:01:00,38.1,32.8,30.04,NNW,342,17.0,20.0,81,0.00,,,0.00,Wunderground v.1.15,2013-04-23 16:01:00,
2013-04-23 11:06:00,38.1,32.8,30.04,NNW,340,17.0,22.0,81,0.00,,,0.00,Wunderground v.1.15,2013-04-23 16:06:00,
2013-04-23 11:11:00,38.2,32.6,30.05,NNW,336,17.0,25.0,80,0.00,,,0.00,Wunderground v.1.15,2013-04-23 16:11:00,
2013-04-23 11:16:00,38.1,32.5,30.04,NNW,346,19.0,25.0,80,0.00,,,0.00,Wunderground v.1.15,2013-04-23 16:16:00,
2013-04-23 11:21:00,38.3,33.0,30.04,NW,325,18.0,23.0,81,0.00,,,0.00,Wunderground v.1.15,2013-04-23 16:21:00,
2013-04-23 11:26:00,38.3,32.7,30.04,NNW,342,19.0,24.0,80,0.00,,,0.00,Wunderground v.1.15,2013-04-23 16:26:00,
2013-04-23 11:32:00,38.2,32.6,30.05,NNW,338,19.0,23.0,80,0.00,,,0.00,Wunderground v.1.15,2013-04-23 16:32:00,
2013-04-23 11:37:00,38.3,32.7,30.04,NNW,333,18.0,23.0,80,0.00,,,0.00,Wunderground v.1.15,2013-04-23 16:37:00,
2013-04-23 11:42:00,38.3,32.4,30.04,NNW,346,20.0,25.0,79,0.00,,,0.00,Wunderground v.1.15,2013-04-23 16:42:00,
2013-04-23 11:47:00,38.3,32.4,30.04,NNW,347,21.0,25.0,79,0.00,,,0.00,Wunderground v.1.15,2013-04-23 16:47:00,
2013-04-23 11:52:00,38.6,33.0,30.05,North,350,20.0,22.0,80,0.00,,,0.00,Wunderground v.1.15,2013-04-23 16:52:00,
2013-04-23 11:57:00,38.9,32.9,30.05,North,355,21.0,23.0,79,0.00,,,0.00,Wunderground v.1.15,2013-04-23 16:57:00,
2013-04-23 12:02:00,39.1,32.8,30.04,NNW,342,17.0,24.0,78,0.00,,,0.00,Wunderground v.1.15,2013-04-23 17:02:00,
2013-04-23 12:07:00,39.2,32.9,30.04,NNW,329,16.0,24.0,78,0.00,,,0.00,Wunderground v.1.15,2013-04-23 17:07:00,
2013-04-23 12:12:00,39.2,32.6,30.04,North,360,17.0,25.0,77,0.00,,,0.00,Wunderground v.1.15,2013-04-23 17:12:00,
2013-04-23 12:17:00,39.5,32.9,30.04,NNW,343,19.0,25.0,77,0.00,,,0.00,Wunderground v.1.15,2013-04-23 17:17:00,
2013-04-23 12:22:00,39.7,33.4,30.04,North,360,18.0,21.0,78,0.00,,,0.00,Wunderground v.1.15,2013-04-23 17:22:00,
2013-04-23 12:27:00,39.5,33.2,30.04,NNW,331,16.0,22.0,78,0.00,,,0.00,Wunderground v.1.15,2013-04-23 17:27:00,
2013-04-23 12:32:00,39.5,33.2,30.04,North,355,10.0,16.0,78,0.00,,,0.00,Wunderground v.1.15,2013-04-23 17:32:00,
2013-04-23 12:37:00,39.1,32.8,30.04,NNW,338,15.0,23.0,78,0.00,,,0.00,Wunderground v.1.15,2013-04-23 17:37:00,
2013-04-23 12:42:00,39.1,32.8,30.04,NNW,346,13.0,18.0,78,0.00,,,0.00,Wunderground v.1.15,2013-04-23 17:42:00,
2013-04-23 12:47:00,39.2,32.6,30.03,North,350,12.0,23.0,77,0.00,,,0.00,Wunderground v.1.15,2013-04-23 17:47:00,
2013-04-23 12:52:00,39.5,33.2,30.03,NNW,333,15.0,20.0,78,0.00,,,0.00,Wunderground v.1.15,2013-04-23 17:52:00,
2013-04-23 12:57:00,39.5,33.5,30.03,NNW,340,18.0,22.0,79,0.00,,,0.00,Wunderground v.1.15,2013-04-23 17:57:00,
2013-04-23 13:02:00,39.5,32.9,30.02,NNW,334,14.0,18.0,77,0.00,,,0.00,Wunderground v.1.15,2013-04-23 18:02:00,
2013-04-23 13:07:00,40.0,33.7,30.02,NNW,327,16.0,21.0,78,0.00,,,0.00,Wunderground v.1.15,2013-04-23 18:07:00,
2013-04-23 13:12:00,39.6,33.0,30.02,NNW,343,16.0,21.0,77,0.00,,,0.00,Wunderground v.1.15,2013-04-23 18:12:00,
2013-04-23 13:17:00,39.7,33.4,30.02,NNW,337,17.0,21.0,78,0.00,,,0.00,Wunderground v.1.15,2013-04-23 18:17:00,
2013-04-23 13:22:00,39.6,33.3,30.02,NNW,329,16.0,19.0,78,0.00,,,0.00,Wunderground v.1.15,2013-04-23 18:22:00,
2013-04-23 13:27:00,39.8,33.5,30.03,NNW,346,22.0,22.0,78,0.00,,,0.00,Wunderground v.1.15,2013-04-23 18:27:00,
2013-04-23 13:32:00,39.9,33.3,30.03,NNW,334,15.0,21.0,77,0.00,,,0.00,Wunderground v.1.15,2013-04-23 18:32:00,
2013-04-23 13:37:00,40.3,34.0,30.03,NW,315,17.0,21.0,78,0.00,,,0.00,Wunderground v.1.15,2013-04-23 18:37:00,
2013-04-23 13:42:00,40.2,33.2,30.03,NW,325,13.0,22.0,76,0.00,,,0.00,Wunderground v.1.15,2013-04-23 18:42:00,
2013-04-23 13:47:00,40.3,33.3,30.02,North,355,17.0,22.0,76,0.00,,,0.00,Wunderground v.1.15,2013-04-23 18:47:00,
2013-04-23 13:52:00,40.4,33.4,30.03,NNW,345,20.0,20.0,76,0.00,,,0.00,Wunderground v.1.15,2013-04-23 18:52:00,
2013-04-23 13:57:00,40.4,33.4,30.03,NW,313,12.0,21.0,76,0.00,,,0.00,Wunderground v.1.15,2013-04-23 18:57:00,
2013-04-23 14:02:00,40.6,33.6,30.03,North,355,19.0,19.0,76,0.00,,,0.00,Wunderground v.1.15,2013-04-23 19:02:00,
2013-04-23 14:07:00,40.6,33.6,30.03,NNW,336,14.0,20.0,76,0.00,,,0.00,Wunderground v.1.15,2013-04-23 19:07:00,
2013-04-23 14:12:00,40.4,33.4,30.03,NW,321,20.0,21.0,76,0.00,,,0.00,Wunderground v.1.15,2013-04-23 19:12:00,
2013-04-23 14:17:00,40.3,33.3,30.03,NNW,327,13.0,21.0,76,0.00,,,0.00,Wunderground v.1.15,2013-04-23 19:17:00,
2013-04-23 14:22:00,40.1,33.1,30.04,NNW,343,15.0,19.0,76,0.00,,,0.00,Wunderground v.1.15,2013-04-23 19:22:00,
2013-04-23 14:27:00,40.1,32.8,30.03,NNW,339,15.0,20.0,75,0.00,,,0.00,Wunderground v.1.15,2013-04-23 19:27:00,
2013-04-23 14:32:00,40.0,33.0,30.03,North,355,13.0,19.0,76,0.00,,,0.00,Wunderground v.1.15,2013-04-23 19:32:00,
2013-04-23 14:37:00,39.9,32.6,30.03,NW,325,18.0,22.0,75,0.00,,,0.00,Wunderground v.1.15,2013-04-23 19:37:00,
2013-04-23 14:42:00,39.9,32.6,30.03,North,355,18.0,21.0,75,0.00,,,0.00,Wunderground v.1.15,2013-04-23 19:42:00,
2013-04-23 14:47:00,40.0,32.7,30.02,North,360,16.0,22.0,75,0.00,,,0.00,Wunderground v.1.15,2013-04-23 19:47:00,
2013-04-23 14:52:00,40.2,33.2,30.02,North,5,13.0,20.0,76,0.00,,,0.00,Wunderground v.1.15,2013-04-23 19:52:00,
2013-04-23 14:57:00,40.2,32.6,30.02,North,355,14.0,20.0,74,0.00,,,0.00,Wunderground v.1.15,2013-04-23 19:57:00,
2013-04-23 15:02:00,40.4,32.8,30.02,NNW,327,15.0,20.0,74,0.00,,,0.00,Wunderground v.1.15,2013-04-23 20:02:00,
2013-04-23 15:07:00,40.3,32.7,30.02,NNW,344,20.0,22.0,74,0.00,,,0.00,Wunderground v.1.15,2013-04-23 20:07:00,
2013-04-23 15:12:00,40.3,32.7,30.01,NNW,346,15.0,23.0,74,0.00,,,0.00,Wunderground v.1.15,2013-04-23 20:12:00,
2013-04-23 15:17:00,40.5,32.9,30.01,North,350,18.0,23.0,74,0.00,,,0.00,Wunderground v.1.15,2013-04-23 20:17:00,
2013-04-23 15:22:00,40.7,32.7,30.01,NNW,342,12.0,21.0,73,0.00,,,0.00,Wunderground v.1.15,2013-04-23 20:22:00,
2013-04-23 15:27:00,40.7,32.7,30.01,North,360,10.0,22.0,73,0.00,,,0.00,Wunderground v.1.15,2013-04-23 20:27:00,
2013-04-23 15:32:00,40.9,33.2,30.01,North,355,19.0,21.0,74,0.00,,,0.00,Wunderground v.1.15,2013-04-23 20:32:00,
2013-04-23 15:37:00,40.8,33.2,30.01,NNW,347,19.0,22.0,74,0.00,,,0.00,Wunderground v.1.15,2013-04-23 20:37:00,
2013-04-23 15:42:00,40.8,33.2,30.01,NNW,336,17.0,19.0,74,0.00,,,0.00,Wunderground v.1.15,2013-04-23 20:42:00,
2013-04-23 15:47:00,40.9,33.2,30.01,NNW,346,15.0,20.0,74,0.00,,,0.00,Wunderground v.1.15,2013-04-23 20:47:00,
2013-04-23 15:52:00,41.2,33.5,30.01,NNW,346,16.0,21.0,74,0.00,,,0.00,Wunderground v.1.15,2013-04-23 20:52:00,
2013-04-23 15:57:00,41.4,33.4,30.01,NNE,12,12.0,21.0,73,0.00,,,0.00,Wunderground v.1.15,2013-04-23 20:57:00,
2013-04-23 16:02:00,41.5,32.8,30.00,North,349,18.0,22.0,71,0.00,,,0.00,Wunderground v.1.15,2013-04-23 21:02:00,
2013-04-23 16:08:00,41.5,33.5,30.01,NNW,344,15.0,22.0,73,0.00,,,0.00,Wunderground v.1.15,2013-04-23 21:08:00,
2013-04-23 16:13:00,41.5,33.1,30.01,North,355,18.0,21.0,72,0.00,,,0.00,Wunderground v.1.15,2013-04-23 21:13:00,
2013-04-23 16:18:00,41.6,33.2,30.01,NNW,344,19.0,21.0,72,0.00,,,0.00,Wunderground v.1.15,2013-04-23 21:18:00,
2013-04-23 16:23:00,41.7,32.6,30.01,NNW,336,13.0,22.0,70,0.00,,,0.00,Wunderground v.1.15,2013-04-23 21:23:00,
2013-04-23 16:28:00,41.8,33.1,30.01,NNE,13,19.0,24.0,71,0.00,,,0.00,Wunderground v.1.15,2013-04-23 21:28:00,
2013-04-23 16:33:00,41.9,33.2,30.01,North,360,16.0,17.0,71,0.00,,,0.00,Wunderground v.1.15,2013-04-23 21:33:00,
2013-04-23 16:38:00,42.0,32.9,30.01,NNW,333,20.0,22.0,70,0.00,,,0.00,Wunderground v.1.15,2013-04-23 21:38:00,
2013-04-23 16:43:00,42.0,32.9,30.01,NNW,337,15.0,20.0,70,0.00,,,0.00,Wunderground v.1.15,2013-04-23 21:43:00,
2013-04-23 16:48:00,41.9,32.8,30.00,North,355,17.0,21.0,70,0.00,,,0.00,Wunderground v.1.15,2013-04-23 21:48:00,
2013-04-23 16:53:00,41.8,32.7,30.00,North,360,14.0,22.0,70,0.00,,,0.00,Wunderground v.1.15,2013-04-23 21:53:00,
2013-04-23 16:58:00,41.9,32.8,30.00,NNW,348,18.0,22.0,70,0.00,,,0.00,Wunderground v.1.15,2013-04-23 21:58:00,
2013-04-23 17:03:00,42.0,32.2,30.00,NNW,336,18.0,26.0,68,0.00,,,0.00,Wunderground v.1.15,2013-04-23 22:03:00,
2013-04-23 17:08:00,42.1,32.7,30.00,NNW,347,18.0,26.0,69,0.00,,,0.00,Wunderground v.1.15,2013-04-23 22:08:00,
2013-04-23 17:13:00,42.2,32.8,30.00,North,351,19.0,23.0,69,0.00,,,0.00,Wunderground v.1.15,2013-04-23 22:13:00,
2013-04-23 17:18:00,42.1,32.7,30.00,NNW,347,15.0,23.0,69,0.00,,,0.00,Wunderground v.1.15,2013-04-23 22:18:00,
2013-04-23 17:23:00,42.1,33.4,30.00,NW,325,16.0,20.0,71,0.00,,,0.00,Wunderground v.1.15,2013-04-23 22:23:00,
2013-04-23 17:28:00,42.2,33.5,30.00,North,350,15.0,23.0,71,0.00,,,0.00,Wunderground v.1.15,2013-04-23 22:28:00,
2013-04-23 17:33:00,42.1,33.0,30.00,NNW,331,16.0,21.0,70,0.00,,,0.00,Wunderground v.1.15,2013-04-23 22:33:00,
2013-04-23 17:38:00,42.0,32.6,30.00,NNW,346,18.0,22.0,69,0.00,,,0.00,Wunderground v.1.15,2013-04-23 22:38:00,
2013-04-23 17:43:00,42.0,32.9,30.00,North,10,13.0,20.0,70,0.00,,,0.00,Wunderground v.1.15,2013-04-23 22:43:00,
2013-04-23 17:48:00,42.1,32.7,30.00,North,355,13.0,20.0,69,0.00,,,0.00,Wunderground v.1.15,2013-04-23 22:48:00,
2013-04-23 17:53:00,42.3,32.1,30.00,NNW,348,16.0,22.0,67,0.00,,,0.00,Wunderground v.1.15,2013-04-23 22:53:00,
2013-04-23 17:59:00,42.4,32.2,30.00,NNW,342,16.0,23.0,67,0.00,,,0.00,Wunderground v.1.15,2013-04-23 22:59:00,
2013-04-23 18:04:00,42.4,32.2,30.00,NNW,339,13.0,21.0,67,0.00,,,0.00,Wunderground v.1.15,2013-04-23 23:04:00,
2013-04-23 18:09:00,42.3,31.7,30.00,North,355,14.0,22.0,66,0.00,,,0.00,Wunderground v.1.15,2013-04-23 23:09:00,
2013-04-23 18:14:00,42.2,32.0,30.00,NNW,336,16.0,19.0,67,0.00,,,0.00,Wunderground v.1.15,2013-04-23 23:14:00,
2013-04-23 18:19:00,42.3,32.5,30.01,NNW,337,14.0,19.0,68,0.00,,,0.00,Wunderground v.1.15,2013-04-23 23:19:00,
2013-04-23 18:24:00,42.2,32.0,30.01,NNW,336,15.0,20.0,67,0.00,,,0.00,Wunderground v.1.15,2013-04-23 23:24:00,
2013-04-23 18:29:00,42.1,31.9,30.01,North,355,14.0,22.0,67,0.00,,,0.00,Wunderground v.1.15,2013-04-23 23:29:00,
2013-04-23 18:34:00,42.0,31.5,30.01,NNW,348,13.0,22.0,66,0.00,,,0.00,Wunderground v.1.15,2013-04-23 23:34:00,
2013-04-23 18:39:00,42.0,31.5,30.01,NNW,336,13.0,22.0,66,0.00,,,0.00,Wunderground v.1.15,2013-04-23 23:39:00,
2013-04-23 18:44:00,42.0,31.5,30.01,North,355,14.0,19.0,66,0.00,,,0.00,Wunderground v.1.15,2013-04-23 23:44:00,
2013-04-23 18:49:00,42.1,31.6,30.01,North,5,11.0,19.0,66,0.00,,,0.00,Wunderground v.1.15,2013-04-23 23:49:00,
2013-04-23 18:54:00,42.1,31.6,30.01,North,350,12.0,15.0,66,0.00,,,0.00,Wunderground v.1.15,2013-04-23 23:54:00,
2013-04-23 18:59:00,42.1,31.9,30.01,NNW,348,11.0,15.0,67,0.00,,,0.00,Wunderground v.1.15,2013-04-23 23:59:00,
2013-04-23 19:04:00,42.2,31.6,30.01,NNW,347,14.0,15.0,66,0.00,,,0.00,Wunderground v.1.15,2013-04-24 00:04:00,
2013-04-23 19:09:00,42.2,31.3,30.01,NNE,22,17.0,21.0,65,0.00,,,0.00,Wunderground v.1.15,2013-04-24 00:09:00,
2013-04-23 19:14:00,42.1,30.8,30.01,North,355,17.0,18.0,64,0.00,,,0.00,Wunderground v.1.15,2013-04-24 00:14:00,
2013-04-23 19:19:00,41.9,30.6,30.01,NNW,346,16.0,19.0,64,0.00,,,0.00,Wunderground v.1.15,2013-04-24 00:19:00,
2013-04-23 19:24:00,41.7,30.8,30.01,NNW,334,13.0,16.0,65,0.00,,,0.00,Wunderground v.1.15,2013-04-24 00:24:00,
2013-04-23 19:29:00,41.5,31.0,30.01,NNW,338,10.0,16.0,66,0.00,,,0.00,Wunderground v.1.15,2013-04-24 00:29:00,
2013-04-23 19:34:00,41.5,31.0,30.01,NNW,347,10.0,17.0,66,0.00,,,0.00,Wunderground v.1.15,2013-04-24 00:34:00,
2013-04-23 19:39:00,41.4,30.9,30.01,NNW,333,13.0,20.0,66,0.00,,,0.00,Wunderground v.1.15,2013-04-24 00:39:00,
2013-04-23 19:44:00,41.3,31.2,30.01,NNW,336,10.0,16.0,67,0.00,,,0.00,Wunderground v.1.15,2013-04-24 00:44:00,
2013-04-23 19:49:00,41.1,31.0,30.02,NW,326,14.0,18.0,67,0.00,,,0.00,Wunderground v.1.15,2013-04-24 00:49:00,
2013-04-23 19:54:00,41.0,30.9,30.02,NNW,336,13.0,17.0,67,0.00,,,0.00,Wunderground v.1.15,2013-04-24 00:54:00,
2013-04-23 19:59:00,40.9,30.8,30.02,NW,320,15.0,18.0,67,0.00,,,0.00,Wunderground v.1.15,2013-04-24 00:59:00,
2013-04-23 20:04:00,40.8,30.7,30.02,NNW,338,13.0,19.0,67,0.00,,,0.00,Wunderground v.1.15,2013-04-24 01:04:00,
2013-04-23 20:09:00,40.7,30.2,30.03,NNW,334,12.0,19.0,66,0.00,,,0.00,Wunderground v.1.15,2013-04-24 01:09:00,
2013-04-23 20:14:00,40.6,30.5,30.03,NNW,340,14.0,18.0,67,0.00,,,0.00,Wunderground v.1.15,2013-04-24 01:14:00,
2013-04-23 20:19:00,40.5,30.4,30.03,NNW,330,15.0,18.0,67,0.00,,,0.00,Wunderground v.1.15,2013-04-24 01:19:00,
2013-04-23 20:24:00,40.4,30.3,30.03,NNW,342,13.0,17.0,67,0.00,,,0.00,Wunderground v.1.15,2013-04-24 01:24:00,
2013-04-23 20:30:00,40.3,30.6,30.03,NNW,339,11.0,12.0,68,0.00,,,0.00,Wunderground v.1.15,2013-04-24 01:30:00,
2013-04-23 20:34:00,40.3,30.6,30.03,NNW,332,16.0,20.0,68,0.00,,,0.00,Wunderground v.1.15,2013-04-24 01:34:00,
2013-04-23 20:39:00,40.2,30.5,30.03,NNW,327,16.0,20.0,68,0.00,,,0.00,Wunderground v.1.15,2013-04-24 01:39:00,
2013-04-23 20:44:00,40.1,30.0,30.03,NNW,348,11.0,18.0,67,0.00,,,0.00,Wunderground v.1.15,2013-04-24 01:44:00,
2013-04-23 20:50:00,40.0,30.3,30.03,NNW,337,13.0,13.0,68,0.00,,,0.00,Wunderground v.1.15,2013-04-24 01:50:00,
2013-04-23 20:55:00,39.8,30.1,30.04,NNW,328,16.0,16.0,68,0.00,,,0.00,Wunderground v.1.15,2013-04-24 01:55:00,
2013-04-23 21:00:00,39.8,30.1,30.04,NNW,336,15.0,15.0,68,0.00,,,0.00,Wunderground v.1.15,2013-04-24 02:00:00,
2013-04-23 21:05:00,39.7,30.0,30.04,NNW,342,11.0,17.0,68,0.00,,,0.00,Wunderground v.1.15,2013-04-24 02:05:00,
2013-04-23 21:10:00,39.6,29.9,30.04,NNW,346,14.0,15.0,68,0.00,,,0.00,Wunderground v.1.15,2013-04-24 02:10:00,
2013-04-23 21:15:00,39.5,29.8,30.04,NNW,344,10.0,15.0,68,0.00,,,0.00,Wunderground v.1.15,2013-04-24 02:15:00,
2013-04-23 21:20:00,39.4,30.1,30.04,NNW,331,13.0,13.0,69,0.00,,,0.00,Wunderground v.1.15,2013-04-24 02:20:00,
2013-04-23 21:25:00,39.3,30.3,30.04,NNW,338,9.0,13.0,70,0.00,,,0.00,Wunderground v.1.15,2013-04-24 02:25:00,
2013-04-23 21:30:00,39.1,30.1,30.05,NNW,345,11.0,12.0,70,0.00,,,0.00,Wunderground v.1.15,2013-04-24 02:30:00,
2013-04-23 21:36:00,39.0,30.0,30.05,NW,326,12.0,14.0,70,0.00,,,0.00,Wunderground v.1.15,2013-04-24 02:36:00,
2013-04-23 21:41:00,38.9,29.9,30.05,NNW,344,14.0,18.0,70,0.00,,,0.00,Wunderground v.1.15,2013-04-24 02:41:00,
2013-04-23 21:46:00,38.9,29.9,30.05,NNW,327,13.0,18.0,70,0.00,,,0.00,Wunderground v.1.15,2013-04-24 02:46:00,
2013-04-23 21:51:00,38.9,29.9,30.05,NNW,336,9.0,14.0,70,0.00,,,0.00,Wunderground v.1.15,2013-04-24 02:51:00,
2013-04-23 21:56:00,38.8,29.8,30.05,NNW,344,13.0,17.0,70,0.00,,,0.00,Wunderground v.1.15,2013-04-24 02:56:00,
2013-04-23 22:01:00,38.7,29.8,30.06,NNW,346,13.0,13.0,70,0.00,,,0.00,Wunderground v.1.15,2013-04-24 03:01:00,
2013-04-23 22:06:00,38.6,29.7,30.06,NNW,330,14.0,15.0,70,0.00,,,0.00,Wunderground v.1.15,2013-04-24 03:06:00,
2013-04-23 22:11:00,38.5,29.6,30.06,NNW,329,11.0,12.0,70,0.00,,,0.00,Wunderground v.1.15,2013-04-24 03:11:00,
2013-04-23 22:17:00,38.4,29.5,30.06,NNW,332,16.0,16.0,70,0.00,,,0.00,Wunderground v.1.15,2013-04-24 03:17:00,
2013-04-23 22:23:00,38.3,29.0,30.06,NNW,341,10.0,17.0,69,0.00,,,0.00,Wunderground v.1.15,2013-04-24 03:23:00,
2013-04-23 22:29:00,38.2,29.3,30.06,NNW,335,11.0,17.0,70,0.00,,,0.00,Wunderground v.1.15,2013-04-24 03:29:00,
2013-04-23 22:34:00,38.1,29.5,30.05,NNW,344,10.0,12.0,71,0.00,,,0.00,Wunderground v.1.15,2013-04-24 03:34:00,
2013-04-23 22:39:00,38.0,29.1,30.06,NNW,336,9.0,16.0,70,0.00,,,0.00,Wunderground v.1.15,2013-04-24 03:39:00,
2013-04-23 22:45:00,37.9,29.0,30.06,NNW,329,13.0,15.0,70,0.00,,,0.00,Wunderground v.1.15,2013-04-24 03:45:00,
2013-04-23 22:51:00,37.8,28.9,30.06,North,355,12.0,13.0,70,0.00,,,0.00,Wunderground v.1.15,2013-04-24 03:51:00,
2013-04-23 22:56:00,37.6,29.0,30.06,NNW,327,11.0,13.0,71,0.00,,,0.00,Wunderground v.1.15,2013-04-24 03:56:00,
2013-04-23 23:01:00,37.5,28.9,30.07,NNW,329,7.0,12.0,71,0.00,,,0.00,Wunderground v.1.15,2013-04-24 04:01:00,
2013-04-23 23:06:00,37.3,28.8,30.06,NNW,331,12.0,13.0,71,0.00,,,0.00,Wunderground v.1.15,2013-04-24 04:06:00,
2013-04-23 23:11:00,37.1,28.9,30.07,NW,321,9.0,12.0,72,0.00,,,0.00,Wunderground v.1.15,2013-04-24 04:11:00,
2013-04-23 23:16:00,36.9,28.7,30.07,NW,321,9.0,12.0,72,0.00,,,0.00,Wunderground v.1.15,2013-04-24 04:16:00,
2013-04-23 23:21:00,36.8,29.0,30.06,NNW,331,5.0,13.0,73,0.00,,,0.00,Wunderground v.1.15,2013-04-24 04:21:00,
2013-04-23 23:26:00,36.7,28.5,30.06,NNW,331,10.0,14.0,72,0.00,,,0.00,Wunderground v.1.15,2013-04-24 04:26:00,
2013-04-23 23:32:00,36.5,28.3,30.05,NW,320,13.0,15.0,72,0.00,,,0.00,Wunderground v.1.15,2013-04-24 04:32:00,
2013-04-23 23:37:00,36.5,28.3,30.06,NW,322,12.0,15.0,72,0.00,,,0.00,Wunderground v.1.15,2013-04-24 04:37:00,
2013-04-23 23:42:00,36.4,28.2,30.06,NW,315,12.0,13.0,72,0.00,,,0.00,Wunderground v.1.15,2013-04-24 04:42:00,
2013-04-23 23:47:00,36.3,28.1,30.06,NW,319,13.0,13.0,72,0.00,,,0.00,Wunderground v.1.15,2013-04-24 04:47:00,
2013-04-23 23:52:00,36.2,28.4,30.06,NW,321,9.0,10.0,73,0.00,,,0.00,Wunderground v.1.15,2013-04-24 04:52:00,
2013-04-23 23:57:00,36.1,28.3,30.06,NW,323,9.0,11.0,73,0.00,,,0.00,Wunderground v.1.15,2013-04-24 04:57:00,